Location: Unspecified
(48.2082°N, 0.0000°E)
Time: 03:19:34
(UTC+00:00)

Tiros 1 despin weight - Pass Details

Date: 29 June 2019
Orbit: 594 x 643 km, 48.2° (Epoch: 12 October)

Event Time Altitude Azimuth Distance (km) Brightness Sun altitude
Rises 01:38:08 0° 284° (WNW) 2,844 ? -15.4°
Reaches altitude 10° 01:40:31 10° 278° (W) 1,935 ? -15.3°
Maximum altitude 01:44:43 43° 207° (SSW) 832 ? -15.0°
Drops below altitude 10° 01:48:53 10° 135° (SE) 1,919 ? -14.7°
Sets 01:51:14 0° 129° (SE) 2,819 ? -14.6°
